When you browse on this site, cookies collect data to enhance your experience and personalize the content and advertising you see.
Visit our Privacy Policy to learn more. By continuing to use the site, you agree to this use of cookies and data.
  • In United Kingdom
  • List of Countries
  • For 7 days
  • Water Temperature
  • Weather Map
  • Weather Widgets
  • user-avatar
    Login

    Hourly Weather Tiszaujvaros

    Today, 23 September, Monday

    Time Temperature Precipitation Wind Pressure Humidity
    00:00 +14°C° 0 mm 1 mps 754 mmHg 48%
    01:00 +13°C° 0 mm 1 mps 754 mmHg 49%
    02:00 +13°C° 0 mm 1 mps 753 mmHg 50%
    03:00 +13°C° 0 mm 1 mps 753 mmHg 51%
    04:00 +12°C° 0 mm 1 mps 753 mmHg 53%
    05:00 +13°C° 0 mm 1 mps 753 mmHg 52%
    06:00 +14°C° 0 mm 1 mps 753 mmHg 52%
    07:00 +14°C° 0 mm 2 mps 753 mmHg 51%
    08:00 +15°C° 0 mm 2 mps 753 mmHg 49%
    09:00 +16°C° 0 mm 2 mps 753 mmHg 47%
    10:00 +17°C° 0 mm 2 mps 753 mmHg 45%
    11:00 +18°C° 0 mm 2 mps 753 mmHg 44%
    12:00 +18°C° 0 mm 2 mps 753 mmHg 44%
    13:00 +19°C° 0 mm 2 mps 753 mmHg 43%
    14:00 +18°C° 0 mm 2 mps 753 mmHg 47%
    15:00 +18°C° 0 mm 3 mps 752 mmHg 51%
    16:00 +17°C° 0 mm 3 mps 752 mmHg 55%
    17:00 +17°C° 0 mm 3 mps 752 mmHg 59%
    18:00 +16°C° 0 mm 2 mps 752 mmHg 63%
    19:00 +16°C° 0 mm 2 mps 752 mmHg 66%
    20:00 +15°C° 0 mm 2 mps 752 mmHg 69%
    21:00 +15°C° 0 mm 2 mps 752 mmHg 71%
    22:00 +15°C° 0 mm 2 mps 752 mmHg 73%
    23:00 +15°C° 0 mm 2 mps 752 mmHg 72%

    Tomorrow, 24 September, Tuesday

    Time Temperature Precipitation Wind Pressure Humidity
    00:00 +14°C° 0 mm 3 mps 752 mmHg 72%
    01:00 +14°C° 0 mm 3 mps 752 mmHg 71%
    02:00 +13°C° 0 mm 3 mps 752 mmHg 72%
    03:00 +13°C° 0 mm 3 mps 751 mmHg 73%
    04:00 +12°C° 0 mm 3 mps 751 mmHg 75%
    05:00 +13°C° 0 mm 3 mps 751 mmHg 72%
    06:00 +13°C° 0 mm 3 mps 751 mmHg 69%
    07:00 +14°C° 0 mm 3 mps 751 mmHg 67%
    08:00 +17°C° 0 mm 3 mps 751 mmHg 59%
    09:00 +19°C° 0 mm 3 mps 751 mmHg 52%
    10:00 +22°C° 0 mm 3 mps 751 mmHg 44%
    11:00 +24°C° 0 mm 3 mps 751 mmHg 42%
    12:00 +24°C° 0 mm 2 mps 751 mmHg 40%
    13:00 +25°C° 0 mm 2 mps 751 mmHg 37%
    14:00 +25°C° 0 mm 2 mps 751 mmHg 39%
    15:00 +25°C° 0 mm 2 mps 750 mmHg 40%
    16:00 +24°C° 0 mm 1 mps 750 mmHg 42%
    17:00 +22°C° 0 mm 1 mps 750 mmHg 46%
    18:00 +21°C° 0 mm 1 mps 751 mmHg 51%
    19:00 +19°C° 0 mm 1 mps 751 mmHg 55%
    20:00 +19°C° 0 mm 1 mps 751 mmHg 57%
    21:00 +17°C° 0 mm 2 mps 751 mmHg 59%
    22:00 +17°C° 0 mm 2 mps 751 mmHg 60%
    23:00 +17°C° 0 mm 2 mps 751 mmHg 64%

    Day after tomorrow, 25 September, Wednesday

    Time Temperature Precipitation Wind Pressure Humidity
    00:00 +17°C° 0 mm 3 mps 751 mmHg 68%
    01:00 +16°C° 0 mm 3 mps 751 mmHg 71%
    02:00 +16°C° 0.8 mm 3 mps 751 mmHg 78%
    03:00 +15°C° 0.8 mm 2 mps 751 mmHg 84%
    04:00 +15°C° 0.8 mm 2 mps 751 mmHg 91%
    05:00 +15°C° 1 mm 2 mps 751 mmHg 91%
    06:00 +15°C° 1 mm 2 mps 751 mmHg 92%
    07:00 +15°C° 1 mm 2 mps 751 mmHg 93%
    08:00 +15°C° 0.2 mm 2 mps 751 mmHg 91%
    09:00 +16°C° 0.2 mm 2 mps 751 mmHg 90%
    10:00 +16°C° 0.2 mm 3 mps 751 mmHg 88%
    11:00 +16°C° 0.1 mm 3 mps 751 mmHg 87%
    12:00 +17°C° 0.1 mm 2 mps 751 mmHg 86%
    13:00 +17°C° 0.1 mm 2 mps 751 mmHg 84%
    14:00 +17°C° 0 mm 2 mps 750 mmHg 82%
    15:00 +18°C° 0 mm 2 mps 750 mmHg 80%
    16:00 +19°C° 0 mm 1 mps 750 mmHg 78%
    17:00 +18°C° 0 mm 1 mps 750 mmHg 82%
    18:00 +16°C° 0 mm 1 mps 750 mmHg 87%
    19:00 +15°C° 0 mm 1 mps 750 mmHg 91%
    20:00 +15°C° 0 mm 1 mps 750 mmHg 92%
    21:00 +15°C° 0 mm 1 mps 751 mmHg 92%
    22:00 +15°C° 0 mm 1 mps 751 mmHg 93%
    23:00 +14°C° 0 mm 1 mps 751 mmHg 93%

    26 September, Thursday

    Time Temperature Precipitation Wind Pressure Humidity
    00:00 +14°C° 0 mm 1 mps 750 mmHg 94%
    01:00 +14°C° 0 mm 1 mps 750 mmHg 94%
    02:00 +14°C° 0 mm 1 mps 750 mmHg 94%
    03:00 +14°C° 0 mm 1 mps 750 mmHg 94%
    04:00 +14°C° 0 mm 1 mps 750 mmHg 95%
    05:00 +14°C° 0.1 mm 1 mps 750 mmHg 94%
    06:00 +14°C° 0.1 mm 1 mps 751 mmHg 92%
    07:00 +15°C° 0.1 mm 1 mps 751 mmHg 91%
    08:00 +15°C° 0.2 mm 1 mps 751 mmHg 89%
    09:00 +16°C° 0.2 mm 1 mps 751 mmHg 87%
    10:00 +16°C° 0.2 mm 1 mps 751 mmHg 85%
    11:00 +16°C° 0.3 mm 1 mps 751 mmHg 86%
    12:00 +16°C° 0.3 mm 1 mps 751 mmHg 87%
    13:00 +16°C° 0.3 mm 2 mps 751 mmHg 88%
    14:00 +16°C° 0.5 mm 1 mps 751 mmHg 90%
    15:00 +16°C° 0.5 mm 1 mps 751 mmHg 91%
    16:00 +16°C° 0.5 mm 1 mps 751 mmHg 93%
    17:00 +15°C° 0 mm 1 mps 752 mmHg 93%
    18:00 +15°C° 0 mm 1 mps 752 mmHg 93%
    19:00 +14°C° 0 mm 1 mps 752 mmHg 94%
    20:00 +14°C° 0 mm 1 mps 753 mmHg 94%
    21:00 +14°C° 0 mm 1 mps 753 mmHg 94%
    22:00 +13°C° 0 mm 1 mps 753 mmHg 93%
    23:00 +13°C° 0 mm 1 mps 753 mmHg 93%

    27 September, Friday

    Time Temperature Precipitation Wind Pressure Humidity
    00:00 +13°C° 0 mm 1 mps 754 mmHg 92%
    01:00 +13°C° 0 mm 1 mps 754 mmHg 92%
    02:00 +12°C° 0 mm 1 mps 754 mmHg 91%
    03:00 +12°C° 0 mm 1 mps 754 mmHg 90%
    04:00 +12°C° 0 mm 1 mps 754 mmHg 89%
    05:00 +13°C° 0 mm 1 mps 755 mmHg 87%
    06:00 +13°C° 0 mm 1 mps 755 mmHg 84%
    07:00 +14°C° 0 mm 1 mps 755 mmHg 82%
    08:00 +16°C° 0 mm 1 mps 755 mmHg 74%
    09:00 +19°C° 0 mm 1 mps 755 mmHg 67%
    10:00 +21°C° 0 mm 1 mps 755 mmHg 59%
    11:00 +20°C° 0 mm 2 mps 755 mmHg 55%
    12:00 +21°C° 0 mm 2 mps 755 mmHg 51%
    13:00 +23°C° 0 mm 2 mps 755 mmHg 47%
    14:00 +23°C° 0 mm 2 mps 755 mmHg 49%
    15:00 +23°C° 0 mm 2 mps 755 mmHg 50%
    16:00 +23°C° 0 mm 2 mps 754 mmHg 51%
    17:00 +20°C° 0 mm 2 mps 755 mmHg 56%
    18:00 +19°C° 0 mm 2 mps 755 mmHg 60%
    19:00 +17°C° 0 mm 2 mps 755 mmHg 65%
    20:00 +17°C° 0 mm 2 mps 755 mmHg 66%
    21:00 +18°C° 0 mm 1 mps 756 mmHg 67%
    22:00 +16°C° 0 mm 1 mps 756 mmHg 68%
    23:00 +16°C° 0 mm 2 mps 756 mmHg 69%

    28 September, Saturday

    Time Temperature Precipitation Wind Pressure Humidity
    00:00 +16°C° 0 mm 2 mps 756 mmHg 71%
    01:00 +16°C° 0 mm 2 mps 756 mmHg 72%
    02:00 +15°C° 0 mm 2 mps 756 mmHg 75%
    03:00 +15°C° 0 mm 2 mps 756 mmHg 77%
    04:00 +14°C° 0 mm 1 mps 756 mmHg 79%
    05:00 +15°C° 0 mm 1 mps 756 mmHg 78%
    06:00 +15°C° 0 mm 1 mps 756 mmHg 77%
    07:00 +16°C° 0 mm 1 mps 756 mmHg 76%
    08:00 +17°C° 0 mm 2 mps 756 mmHg 71%
    09:00 +19°C° 0 mm 2 mps 756 mmHg 65%
    10:00 +21°C° 0 mm 2 mps 756 mmHg 59%
    11:00 +22°C° 0 mm 3 mps 756 mmHg 56%
    12:00 +24°C° 0 mm 3 mps 756 mmHg 53%
    13:00 +25°C° 0 mm 3 mps 755 mmHg 50%
    14:00 +24°C° 0 mm 3 mps 755 mmHg 50%
    15:00 +24°C° 0 mm 2 mps 755 mmHg 51%
    16:00 +24°C° 0 mm 2 mps 755 mmHg 52%
    17:00 +23°C° 0 mm 2 mps 755 mmHg 56%
    18:00 +20°C° 0 mm 2 mps 755 mmHg 59%
    19:00 +19°C° 0 mm 2 mps 755 mmHg 63%
    20:00 +19°C° 0 mm 1 mps 755 mmHg 64%
    21:00 +19°C° 0 mm 1 mps 755 mmHg 66%
    22:00 +18°C° 0 mm 1 mps 755 mmHg 67%
    23:00 +18°C° 0 mm 1 mps 755 mmHg 68%
    Show more